Volver al catálogo

CZ-6A DEB

ActivoPO
NORAD 54405·DEBRIS·🇨🇳 China

Lanzado Nov 11, 2022 desde Taiyuan Satellite Launch Center

Loading…

Próximos Pases (próximas 24 horas)

TLE

ActualizadoSource: Space-Track

Época: Sep 14, 2026, 05:49 UTC

1 54405U 22151ED  26257.24290856  .00001713  00000-0  27171-3 0  9990
2 54405  98.6789 358.7407 0138331 288.6202  70.0022 14.67507646204371

Sigue CZ-6A DEB en tiempo real con AllMySat

Download on the App Store